Location: Vaughan
(31.9146°N, 97.1736°W)
Time: 10:35:36
(UTC+00:00)

COSMOS 2455 - Pass Details

Date: 10 December 2025
Orbit: 898 x 910 km, 67.1° (Epoch: 21 January)

Event Time Altitude Azimuth Distance (km) Brightness Sun altitude
Rises 01:48:08 0° 209° (SSW) 3,510 6.4 -29.7°
Reaches altitude 10° 01:50:38 10° 211° (SSW) 2,573 5.7 -30.2°
Enters shadow 01:56:18 70° 273° (W) 959 3.0 -31.4°
